www.pogodaiklimat.ru

Погода и климат >> Архив погоды >> Перу >> Lima


АРХИВ ПОГОДЫ в Lima

Время (UTC), дата Ветер
(напр.,м/с)
 
Видим.   Явления Облачность Т
(С)
Тd
(С)
f
(%)
Тe
(С)
Тes
(С)
Комфортность P
(гПа)
Po
(гПа)
Тmin
(С)
Tmax
(С)
R
(мм)
R24
(мм)
S
(см)
06 16.07 Ю 3 10 км 10/10 300 м
[St]
+16.7 +14.6 87 +17 +17 по сезону 1014.2 1012.6
09 16.07 Ю 2 8000 м дымка {туман} 10/10 400 м
[St]
+16.3 +14.3 88 +17 +17 тепло 1014.9 1013.3
12 16.07 З 1 6000 м слабая морось {туман} 10/10 180 м
[St]
+15.6 +14.8 95 +16 +16 по сезону 1016.7 1015.1 +15.4
15 16.07 З 2 8000 м дымка 10/10 360 м
[St]
+16.8 +14.7 87 +17 +17 по сезону 1016.9 1015.3
18 16.07 нст 2 10 км мгла 10/10 420 м
[St]
+18.0 +13.8 76 +19 +19 по сезону 1016.9 1014.5
21 16.07 Ю 4 10 км 10/10 270 м
[Sc]
+18.5 +14.2 76 +19 +19 тепло 1014.0 1012.5
00 17.07 Ю 5 10 км 10/10 270 м
[St]
+17.0 +14.7 86 +16 +16 по сезону 1015.5 1013.9 +19.3
03 17.07 ЮВ 5 10 км 10/10 400 м
[St]
+17.0 +14.7 86 +16 +16 по сезону 1017.3 1015.7
06 17.07 Ю 4 10 км 10/10 360 м
[St]
+16.6 +14.5 87 +16 +16 по сезону 1016.9 1015.3
09 17.07 Ю 3 10 км 10/10 420 м
[St]
+16.3 +13.8 85 +16 +16 по сезону 1016.3 1014.7
12 17.07 нст 3 10 км 10/10 570 м
[St]
+16.6 +13.6 82 +16 +16 по сезону 1017.1 1015.5 +16.2
15 17.07 Ю 4 10 км 10/10 600 м
[Sc]
+17.3 +13.9 80 +17 +17 по сезону 1018.4 1016.8
18 17.07 Ю 7 10 км 9/9 700 м
[Sc]
+18.9 +13.8 72 +19 +20 по сезону 1015.7 1014.1
21 17.07 Ю 5 10 км 10/10 270 м
[St]
+17.0 +14.3 84 +16 +16 по сезону 1015.0 1013.4
00 18.07 ЮВ 6 10 км 10/10 240 м
[St]
+16.4 +14.2 87 +15 +15 по сезону 1016.1 1014.5 +19.4
03 18.07 Ю 5 9000 м дымка 10/10 240 м
[St]
+16.4 +14.3 87 +16 +16 по сезону 1017.7 1016.1
06 18.07 Ю 4 9000 м дымка 10/10 240 м
[Sc]
+16.3 +14.7 90 +16 +16 по сезону 1016.9 1015.3
09 18.07 Ю 3 6000 м слабая морось 10/10 120 м
[Frnb]
+15.2 +14.7 97 +14 +14 по сезону 1016.5 1015.0
12 18.07 Ю 3 9000 м дымка {морось} 10/10 750 м
[Sc]
+15.5 +14.6 94 +15 +15 по сезону 1016.7 1015.2 +15.2 0.0
15 18.07 нст 3 10 км 10/10 360 м
[Sc]
+17.4 +14.3 82 +18 +18 по сезону 1017.1 1015.5
18 18.07 Ю 5 10 км 10/10 400 м
[Sc]
+18.0 +13.6 75 +18 +18 по сезону 1016.1 1014.5
21 18.07 Ю 4 10 км 10/10 480 м
[Sc]
+17.6 +13.8 78 +17 +17 по сезону 1014.5 1012.9
00 19.07 Ю 5 10 км 10/10 360 м
[Sc]
+16.9 +14.2 84 +16 +16 по сезону 1015.5 1013.9 +18.6
03 19.07 ЮВ 7 10 км 10/10 400 м
[Sc]
+17.1 +13.7 80 +16 +16 по сезону 1017.6 1015.0
06 19.07 Ю 4 10 км 10/10 330 м
[Sc]
+16.6 +14.1 85 +16 +16 по сезону 1016.3 1014.7
09 19.07 ЮЗ 1 8000 м дымка 8/8 540 м
[St]
+15.6 +13.8 89 +16 +16 по сезону 1015.0 1013.4
12 19.07 Ю 3 7000 м дымка {туман} 8/3 450 м
[St Ac trans]
+15.4 +14.1 92 +15 +15 по сезону 1015.2 1013.6 +15.2
15 19.07 нст 2 10 км 6/6 540 м
[St]
+18.5 +14.0 75 +20 +24 тепло 1016.2 1014.6
18 19.07 нст 5 10 км ясно +20.6 +14.5 68 +23 +31 комфорт 1014.4 1012.8
06 20.07 З 2 10 км 10/10 600 м
[Sc]
+16.9 +15.3 90 +17 +17 тепло 1013.3 1011.7
09 20.07 Ю 2 10 км 10/10 240 м
[St]
+16.6 +15.1 91 +17 +17 тепло 1012.2 1010.6
12 20.07 Ю 2 7000 м 10/10 300 м
[St]
+16.6 +15.3 92 +17 +17 тепло 1013.4 1011.8 +16.5
15 20.07 нст 2 н/о дымка 10/10 240 м
[St]
+17.2 +15.4 89 +18 +18 тепло 1014.4 1012.8
18 20.07 нст 3 9000 м дымка 10/10 360 м
[St]
+18.0 +14.7 81 +18 +18 по сезону 1013.1 1011.5
21 20.07 нст 2 10 км 10/10 360 м
[St]
+17.8 +14.5 81 +19 +19 тепло 1011.2 1009.6
00 21.07 Ю 4 7000 м мгла 10/10 210 м
[St]
+16.3 +15.2 93 +16 +16 по сезону 1012.6 1011.0 +18.8 0.0
03 21.07 Ю 3 6000 м слабая морось 10/10 240 м
[St]
+16.6 +15.0 90 +16 +16 по сезону 1013.6 1012.0
06 21.07 Ю 2 7000 м слабая морось {туман} 10/10 210 м
[St]
+16.1 +15.3 95 +16 +16 по сезону 1013.4 1011.8 0.0
09 21.07 ЮВ 2 6000 м слабая морось {туман} 10/10 180 м
[St]
+15.8 +15.3 97 +16 +16 по сезону 1013.6 1012.0
12 21.07 С 2 6000 м дымка {морось, туман} 10/10 500 м
[St]
+16.2 +15.1 93 +16 +16 по сезону 1014.2 1012.6 +15.5 0.1
15 21.07 З 3 10 км {туман} 10/10 450 м
[St]
+17.5 +15.2 86 +18 +18 тепло 1015.9 1014.3
21 21.07 З 2 10 км 10/10 400 м
[St]
+18.1 +14.6 80 +19 +19 тепло 1013.3 1011.7
00 22.07 Ю 3 7000 м дымка 10/10 450 м
[St]
+17.1 +15.1 88 +17 +17 по сезону 1014.8 1013.2 +18.4
03 22.07 Ю 3 10 км 10/10 210 м
[St]
+16.7 +15.6 93 +17 +17 по сезону 1016.6 1015.0
06 22.07 Ю 4 10 км 10/10 300 м
[St]
+16.8 +15.2 90 +16 +16 по сезону 1015.7 1014.1
09 22.07 Ю 4 <100 м 10/10 180 м
[St]
+16.2 +15.4 95 +16 +16 по сезону 1014.3 1012.7
12 22.07 Ю 3 9000 м слабая морось 10/0
[]
+15.7 +15.2 97 +15 +15 по сезону 1015.0 1013.4 0.0
15 22.07 Ю 4 10 км {морось} 10/10 330 м
[St]
+16.9 +14.8 87 +17 +17 по сезону 1016.2 1014.6
21 22.07 Ю 3 10 км 10/10 210 м
[St]
+17.3 +14.6 84 +17 +17 по сезону 1012.1 1010.5

 

Местоположение метеостанции Lima (Перу): широта -12.00 долгота -77.11 высота над уровнем моря 13 м.

В архиве по умолчанию представлена погода в Lima за последнюю неделю. Архивные данные за месяц целиком и за предыдущие месяцы, начиная с января 2011 года, Вы можете получить, выбрав интересующий диапазон дат из раскрывающегося списка и нажав кнопку "Ввод!".


*Определитесь, кто Вы:
робот инопланетянин человек

Внимание! Время в таблицах - всемирное. Для получения местного времени необходимо прибавить поправку, которая в Lima равна -5 ч.

Смотрите также архив погоды в соседних городах и на ближайших метеорологических станциях:

Погода в Pisco (Перу) (216 км)
Погода в Huanuco (Перу) (257 км)
Погода в Anta (Перу) (300 км)
Погода в Tingo Maria (Перу) (326 км)
Погода в Ayacucho (Перу) (341 км)
Погода в Chimbote (Перу) (354 км)
Погода в Nazca (Перу) (394 км)
Погода в Andahualaylas (Перу) (450 км)
Погода в Trujillo (Перу) (487 км)
Погода в Pucallpa (Перу) (491 км)

Пояснения к столбцам:

Ветер - указаны скорость ветра в м/с - средняя за 10 мин, порывы в срок и между сроками (в фигурных скобках) и направление, откуда дует ветер: С - северный, СВ - северо-восточный, В - восточный, ЮВ - юго-восточный, Ю - южный, ЮЗ - юго-западный, З - западный, СЗ - северо-западный.
Видимость - горизонтальная дальность видимости в метрах или километрах. При видимости от 1 до 10 км при отсутствии осадков обычно наблюдается дымка, при ухудшении видимости до 1 км и менее - туман. В сухую погоду видимость может ухудшаться дымом, пылью или мглою.
Явления - указаны атмосферные явления, наблюдавшиеся в срок или в последний час перед сроком; фигурными скобками обозначены явления, наблюдавшиеся между сроками (за 1-3 часа до срока); квадратными скобками обозначены град или гололедные отложения с указанием их диаметра в мм.
Облачность - указаны через наклонную черту общая и нижняя облачность в баллах и высота нижней границы облаков в метрах; квадратными скобками обозначены формы облаков: Ci - перистые, Cs - перисто-слоистые, Cc - перисто-кучевые, Ac - высококучевые, As - высокослоистые, Sc - слоисто-кучевые, Ns - слоисто-дождевые, Cu - кучевые, Cb - кучево-дождевые. Подробнее классификацию облаков см. в Атласе облаков (PDF).
T - Температура воздуха - температура, измеренная на высоте 2 м над землей.
Td - Температура точки росы - температура, при понижении до которой содержащийся в воздухе водяной пар достигнет насыщения.
f - Относительная влажность воздуха - влажноcть воздуха, измеренная на высоте 2 м над землей.
Te - Эффективная температура - температура, которую ощущает одетый по сезону человек в тени. Характеристика душности погоды. При расчете учитывается влияние влажности воздуха и скорости ветра на теплоощущения человека.
Tes - Эффективная температура на солнце - температура, которую ощущает человек, с поправкой на солнечный нагрев. Характеристика знойности погоды. Зависит от высоты солнца над горизонтом, облачности и скорости ветра. Ночью, в пасмурную погоду, а также при ветре 12 м/с и более поправка равна нулю.
P - Атмосферное давление - приведенное к уровню моря атмосферное давление.
Po - Атмосферное давление - измеренное на уровне метеостанции атмосферное давление.
Tmin - Минимальная температура - минимум температуры воздуха на высоте 2 м над землей.
Tmax - Максимальная температура - максимум температуры воздуха на высоте 2 м над землей.
R - Количество осадков - Количество выпавших осадков за период времени, мм. При наведении курсора мыши на число - период времени, за который выпало указанное количество осадков.
R24 - Количество осадков - Количество выпавших осадков за 24 часа, мм.
S - Снежный покров - Высота снежного покрова, см. При наведении курсора мыши на число - состояние снежного покрова и степень покрытия местности в баллах.